Wind_Speed
56 51 47 41 40 40 43 44 44 45 45 45 46 47 44 42 43 44 42 44 46 46 48 48 50 52 50 51 52 51 51 52 54 56 58 60 60 63 64 67 68 70 73
57 50 45 39 39 38 41 41 41 43 42 41 39 39 40 41 43 42 40 40 39 39 39 41 44 44 45 47 48 50 51 51 53 57 59 62 65 65 67 70 73 75 79
57 48 42 39 38 37 36 36 37 37 36 35 36 37 38 40 39 37 38 38 40 39 38 40 41 42 43 46 48 51 54 56 56 57 60 61 65 69 74 77 80 81 84
58 47 43 39 38 36 35 34 36 35 34 33 32 34 36 36 36 37 38 39 38 39 41 43 44 46 48 51 53 55 58 62 64 66 67 68 68 69 70 79 85 89 90
58 45 43 40 40 38 36 38 36 36 33 31 33 35 36 37 38 41 41 41 42 43 44 46 49 51 54 56 58 60 63 65 69 70 73 75 76 77 74 72 80 87 93
57 47 45 42 43 39 37 40 39 38 37 36 37 37 39 39 41 42 44 45 44 45 49 51 53 56 58 61 64 69 70 74 74 75 76 78 81 83 84 82 81 81 86
56 49 45 45 44 41 40 43 43 41 39 37 38 40 40 42 44 46 47 47 49 52 55 58 61 63 66 70 73 77 79 83 84 84 84 85 85 84 85 86 86 89 93
55 48 46 45 45 43 42 45 45 44 43 40 41 42 43 46 46 48 50 51 54 57 61 64 67 69 73 76 81 84 88 91 90 88 87 87 87 90 94 95 94 87 85
56 50 47 48 47 44 45 48 47 47 45 44 44 46 48 48 49 51 53 56 60 63 68 71 74 77 80 83 88 92 95 94 91 90 90 91 94 95 95 95 96 96 89
54 50 49 49 48 47 48 50 48 48 48 48 49 49 50 51 52 55 58 61 65 69 74 78 80 83 87 92 96 99 96 93 92 93 95 96 96 96 98 99 98 99 99
54 50 48 48 49 50 51 51 51 51 50 49 51 52 53 54 57 61 64 67 71 77 81 84 87 90 94 99 102 100 94 93 95 97 97 96 97 97 97 97 99 103 110
53 49 48 49 51 52 52 52 52 53 52 52 54 55 57 60 63 67 70 74 79 84 88 90 93 97 102 105 100 95 95 97 97 99 97 98 96 96 99 103 108 114 119
52 50 50 51 51 53 53 52 53 52 53 55 58 60 62 65 69 72 76 81 86 90 92 95 99 104 106 100 96 96 98 98 98 98 96 95 97 103 109 114 118 122 125
52 51 50 51 52 54 53 52 52 53 56 59 61 64 67 70 74 77 82 87 91 93 97 101 105 107 100 97 98 98 99 99 99 96 99 103 108 113 118 122 125 127 128
52 51 50 50 53 53 52 54 56 58 60 62 64 67 71 75 78 83 88 92 94 98 102 106 107 98 97 98 98 98 98 97 96 102 106 113 118 122 126 128 127 125 119
53 51 50 52 54 55 57 58 60 62 63 66 69 72 76 79 83 87 92 94 98 102 107 105 97 98 97 98 99 97 94 99 103 109 115 121 125 128 128 127 121 115 107
49 48 49 53 56 58 59 62 63 65 68 71 74 76 79 82 87 90 95 99 103 107 101 97 96 97 98 99 97 96 100 106 113 118 123 127 130 127 121 113 108 104 101
49 49 51 54 56 59 61 63 66 68 70 73 76 78 82 86 90 94 99 103 104 97 96 96 97 97 99 95 97 102 109 116 121 125 131 130 124 118 109 102 99 96 90
49 50 51 54 56 59 61 64 67 69 73 75 78 82 86 90 94 98 103 98 94 95 96 96 96 97 95 99 104 111 117 123 126 132 130 123 113 105 101 96 91 87 82
52 53 54 55 56 57 59 62 67 72 74 78 81 86 89 94 98 99 91 91 92 94 93 95 94 94 100 106 113 119 122 126 129 126 122 114 106 100 94 87 82 79 75
54 55 56 57 59 61 64 68 70 73 77 81 85 90 94 97 92 88 88 90 90 92 92 90 95 100 108 114 119 125 130 129 122 117 110 105 100 94 87 81 76 72 69
55 56 58 60 62 65 68 70 74 77 81 85 89 93 91 86 85 85 87 88 88 87 88 94 101 109 115 121 125 130 129 121 115 109 104 97 91 85 80 77 72 66 61
56 58 61 63 66 68 71 74 78 82 86 89 88 82 81 81 82 83 86 85 84 88 94 100 106 113 120 126 129 125 117 112 108 103 96 89 83 80 75 69 64 59 55
58 60 63 65 68 72 75 79 82 83 82 77 78 78 78 79 82 82 80 83 88 94 100 106 112 118 125 126 118 111 108 102 99 95 88 83 79 75 70 63 57 53 48
62 64 67 69 72 75 77 76 75 72 73 73 73 75 76 77 75 77 82 89 95 100 105 110 117 122 121 114 108 102 98 94 90 84 80 77 73 66 60 55 51 45 40
65 68 70 70 68 67 66 66 68 69 70 72 72 71 70 71 76 83 90 96 101 107 112 119 121 118 113 106 99 96 92 87 81 78 76 72 65 59 53 49 44 39 35
Wind_Direction
236 238 240 241 241 243 250 252 254 255 258 262 263 265 263 268 272 280 283 286 287 288 290 288 288 289 291 292 292 293 292 292 292 292 291 290 289 287 286 284 283 281 280
233 237 238 239 239 245 251 251 253 257 258 258 257 261 266 271 275 279 282 283 285 288 289 289 290 292 294 295 295 294 293 292 292 292 292 291 290 287 285 283 281 280 279
231 234 235 237 237 243 246 247 251 252 255 258 262 265 269 270 273 275 277 278 281 287 291 292 294 293 294 295 295 296 297 295 294 293 292 290 289 289 289 288 286 284 282
229 228 230 235 237 239 241 247 249 252 256 259 262 262 266 269 270 272 277 281 285 288 292 294 296 299 300 300 301 302 302 301 298 295 292 290 286 284 283 286 286 285 284
227 225 228 232 235 237 241 245 247 250 251 252 258 262 265 266 271 276 280 283 286 290 292 295 297 298 299 300 300 301 303 303 299 296 294 292 290 287 282 277 276 281 282
222 220 223 227 233 236 240 244 247 250 252 254 258 261 266 270 276 282 285 289 292 293 294 295 296 296 299 300 302 303 302 304 300 297 295 293 292 291 290 288 285 281 279
218 218 221 226 231 235 239 244 248 249 252 255 259 264 269 275 280 283 285 289 294 295 297 297 297 298 300 302 303 306 305 304 302 300 298 296 295 294 292 291 288 285 283
216 217 220 225 230 235 240 244 248 250 254 256 261 266 272 276 279 282 286 291 294 297 300 300 300 299 301 302 305 307 306 305 303 302 300 299 300 298 295 294 291 290 289
215 216 218 224 230 236 240 244 247 252 256 259 264 268 273 277 280 283 287 290 293 298 301 301 300 302 303 305 307 307 307 306 304 303 304 303 301 300 299 298 297 294 292
214 215 218 224 231 237 242 245 250 255 258 261 266 270 274 277 280 285 288 292 295 298 301 301 302 304 306 307 308 308 307 305 305 305 304 303 303 301 300 298 298 298 297
214 216 221 226 232 238 241 246 251 256 258 263 268 272 275 279 283 287 289 292 295 299 301 304 305 306 307 308 308 307 307 307 305 305 305 304 302 301 300 300 299 299 298
214 217 223 227 233 239 244 248 253 257 261 266 270 273 276 280 285 287 292 294 297 301 303 305 306 306 307 308 307 307 307 305 306 306 305 304 304 303 302 302 301 300 298
214 220 224 229 234 240 246 251 255 258 265 270 272 275 278 283 286 290 293 296 299 301 303 305 305 307 307 307 307 307 306 306 307 305 305 305 304 304 304 303 300 299 298
217 222 227 230 236 241 247 251 256 263 267 271 275 277 281 285 289 292 294 297 300 302 303 305 306 306 306 307 306 307 307 307 307 307 306 306 306 305 303 302 301 300 300
220 225 230 235 241 245 251 254 259 264 269 274 277 281 284 287 291 292 296 299 300 302 304 305 306 306 306 306 307 308 308 308 308 307 307 306 305 305 304 303 303 304 302
221 228 233 239 244 248 252 256 261 267 271 275 278 282 286 288 290 294 297 299 301 303 304 305 305 306 307 307 308 309 309 309 308 307 307 307 307 306 306 307 307 306 304
227 233 238 242 246 251 255 259 264 268 272 276 280 284 287 290 293 296 298 300 302 303 304 305 307 308 307 308 310 310 309 309 308 308 308 308 308 308 309 309 309 308 307
229 235 240 246 251 255 259 262 266 271 275 278 281 286 289 292 293 297 299 301 302 303 305 306 307 307 309 310 310 310 309 308 310 310 310 310 310 311 312 312 311 309 309
235 240 245 251 256 260 263 266 270 274 277 281 285 288 290 293 297 299 300 302 303 304 306 307 307 309 310 310 310 309 310 310 311 311 310 312 314 314 313 313 312 310 310
238 243 248 254 259 263 268 272 274 277 281 285 288 291 294 296 297 299 301 302 304 306 306 307 309 309 310 310 310 311 311 312 312 312 313 315 315 315 315 314 313 312 312
244 249 255 261 265 268 271 274 278 282 287 289 291 293 295 296 299 300 303 304 305 306 308 309 309 309 309 310 312 313 314 314 313 313 314 316 316 316 316 315 315 314 312
249 254 259 264 268 272 276 280 283 286 288 290 291 294 297 298 301 302 303 305 306 307 308 309 309 310 311 312 314 315 314 314 315 315 316 317 317 317 317 317 316 314 313
257 262 266 269 272 276 280 282 284 287 288 291 294 296 297 301 302 303 305 306 307 308 308 309 310 311 312 314 315 315 314 315 315 315 317 318 318 317 317 317 315 315 314
261 265 269 273 275 277 281 282 285 288 290 292 295 298 300 301 303 304 305 306 307 308 308 310 312 313 313 314 315 315 314 316 315 317 319 319 319 319 318 317 317 316 316
265 268 271 274 277 280 283 285 287 290 293 295 298 299 301 303 304 305 306 307 308 309 310 312 313 313 314 316 316 315 316 317 318 320 319 318 318 318 318 317 317 317 317
270 272 276 280 281 283 286 289 291 294 296 296 298 300 302 304 305 306 308 309 311 312 313 315 315 317 318 317 317 317 318 320 320 320 318 319 319 319 318 317 318 317 317
Height
10682 10691 10697 10700 10702 10706 10712 10716 10717 10717 10719 10721 10721 10720 10719 10718 10715 10714 10710 10707 10705 10702 10700 10697 10694 10690 10686 10682 10677 10673 10670 10667 10660 10654 10649 10644 10642 10634 10630 10623 10619 10614 10609
10673 10682 10688 10691 10694 10698 10703 10706 10708 10709 10710 10711 10710 10710 10709 10707 10705 10704 10702 10699 10696 10693 10690 10687 10684 10680 10676 10672 10667 10662 10658 10656 10651 10644 10639 10631 10624 10621 10615 10608 10601 10597 10589
10665 10674 10679 10683 10685 10689 10694 10697 10699 10701 10702 10702 10701 10700 10700 10699 10697 10695 10693 10691 10688 10685 10682 10679 10675 10672 10668 10663 10658 10652 10645 10640 10638 10633 10627 10621 10612 10603 10590 10583 10576 10572 10565
10655 10665 10669 10674 10677 10682 10687 10688 10691 10693 10693 10693 10693 10692 10692 10691 10689 10687 10684 10682 10680 10677 10674 10670 10666 10661 10656 10651 10646 10640 10634 10626 10620 10614 10609 10604 10599 10594 10591 10569 10554 10544 10538
10645 10657 10661 10665 10669 10673 10677 10680 10683 10685 10685 10685 10685 10685 10684 10683 10680 10678 10675 10673 10670 10667 10663 10659 10654 10649 10643 10637 10631 10625 10619 10612 10603 10595 10587 10579 10573 10568 10569 10570 10552 10533 10518
10634 10644 10651 10656 10660 10665 10669 10672 10675 10677 10678 10678 10677 10677 10675 10673 10671 10668 10665 10663 10660 10656 10652 10647 10641 10635 10628 10622 10615 10609 10601 10592 10584 10575 10567 10558 10548 10539 10531 10530 10527 10523 10511
10623 10634 10641 10647 10652 10657 10661 10664 10666 10668 10668 10668 10668 10667 10666 10663 10660 10657 10654 10650 10648 10644 10639 10633 10627 10620 10612 10605 10597 10589 10579 10569 10559 10550 10541 10531 10523 10515 10504 10497 10495 10488 10477
10615 10626 10632 10639 10643 10648 10653 10656 10658 10659 10659 10659 10658 10657 10655 10653 10650 10647 10643 10639 10635 10630 10624 10618 10611 10604 10596 10588 10578 10567 10556 10544 10534 10524 10514 10504 10493 10482 10470 10460 10453 10454 10445
10607 10617 10624 10629 10635 10640 10644 10647 10649 10650 10650 10650 10649 10647 10644 10642 10639 10636 10632 10627 10622 10616 10608 10601 10594 10586 10578 10568 10557 10545 10533 10520 10508 10497 10487 10476 10465 10451 10437 10425 10414 10406 10414
10602 10610 10615 10621 10626 10631 10635 10638 10639 10640 10641 10640 10638 10636 10634 10631 10628 10624 10619 10614 10608 10602 10594 10585 10576 10567 10557 10547 10535 10522 10509 10496 10484 10472 10461 10449 10437 10424 10411 10398 10387 10372 10362
10594 10602 10609 10614 10619 10623 10626 10629 10630 10630 10630 10631 10628 10626 10623 10620 10616 10611 10606 10599 10594 10586 10576 10567 10557 10547 10535 10523 10511 10497 10485 10473 10461 10448 10436 10422 10410 10397 10384 10372 10360 10347 10326
10586 10594 10601 10606 10610 10613 10616 10618 10620 10621 10622 10620 10618 10615 10611 10608 10603 10597 10591 10584 10577 10567 10557 10548 10537 10525 10514 10500 10487 10475 10463 10451 10437 10423 10411 10397 10384 10369 10356 10343 10331 10315 10295
10579 10586 10592 10597 10602 10605 10607 10609 10611 10612 10612 10609 10606 10602 10599 10594 10588 10582 10576 10568 10559 10549 10539 10528 10517 10504 10491 10477 10464 10453 10441 10426 10413 10399 10385 10371 10358 10344 10330 10313 10297 10280 10262
10571 10578 10585 10590 10594 10597 10599 10600 10602 10602 10600 10597 10594 10590 10586 10580 10574 10567 10559 10550 10540 10530 10520 10508 10495 10482 10468 10456 10444 10431 10417 10402 10388 10373 10358 10344 10330 10315 10299 10280 10261 10243 10224
10564 10572 10578 10583 10587 10589 10590 10591 10592 10590 10588 10586 10582 10577 10572 10566 10559 10551 10542 10532 10522 10512 10500 10487 10473 10460 10449 10435 10422 10410 10396 10380 10365 10349 10334 10317 10299 10281 10261 10240 10223 10202 10182
10560 10567 10573 10576 10579 10580 10581 10582 10581 10579 10577 10573 10569 10564 10558 10551 10543 10535 10525 10515 10504 10492 10479 10466 10454 10441 10427 10414 10400 10387 10372 10357 10341 10327 10309 10289 10269 10248 10229 10206 10183 10157 10140
10556 10561 10565 10568 10569 10570 10571 10571 10570 10567 10564 10560 10556 10550 10543 10536 10527 10519 10508 10495 10484 10471 10457 10445 10432 10418 10405 10391 10378 10364 10349 10332 10315 10297 10278 10259 10235 10215 10196 10177 10152 10129 10110
10550 10553 10556 10558 10560 10560 10560 10560 10558 10555 10552 10547 10541 10535 10528 10520 10510 10501 10489 10477 10464 10450 10437 10423 10410 10396 10383 10370 10356 10342 10325 10305 10286 10265 10242 10222 10204 10181 10162 10146 10126 10104 10090
10543 10545 10548 10549 10549 10550 10550 10548 10546 10542 10537 10532 10526 10520 10511 10502 10492 10482 10470 10457 10444 10431 10416 10403 10390 10376 10361 10348 10333 10318 10300 10280 10260 10235 10207 10186 10171 10152 10135 10119 10100 10080 10067
10534 10536 10538 10539 10540 10539 10538 10536 10532 10527 10523 10517 10510 10502 10493 10483 10473 10461 10449 10438 10424 10411 10397 10382 10369 10355 10340 10324 10307 10290 10272 10255 10233 10205 10176 10156 10138 10123 10108 10093 10077 10060 10047
10526 10528 10529 10529 10529 10528 10525 10521 10517 10513 10507 10500 10492 10484 10475 10465 10454 10443 10431 10419 10406 10392 10378 10365 10350 10335 10319 10300 10280 10259 10236 10215 10197 10172 10154 10135 10116 10098 10084 10069 10056 10043 10030
10518 10519 10519 10518 10516 10513 10510 10507 10502 10496 10490 10483 10475 10466 10457 10447 10436 10424 10412 10400 10388 10374 10361 10347 10329 10310 10291 10272 10253 10230 10204 10180 10162 10145 10128 10114 10095 10078 10064 10049 10038 10027 10016
10507 10508 10507 10505 10503 10501 10497 10491 10486 10480 10473 10466 10457 10449 10439 10429 10418 10406 10393 10380 10369 10356 10343 10328 10312 10292 10270 10250 10229 10204 10178 10158 10138 10121 10107 10091 10075 10060 10048 10035 10021 10012 10002
10497 10497 10495 10493 10490 10485 10481 10476 10470 10464 10456 10448 10441 10432 10421 10411 10400 10388 10376 10364 10352 10339 10325 10309 10291 10270 10248 10227 10205 10181 10159 10142 10119 10101 10084 10070 10057 10043 10029 10019 10009 9999 9990
10484 10482 10480 10478 10475 10471 10465 10459 10452 10446 10440 10432 10423 10414 10404 10393 10381 10370 10359 10346 10331 10319 10304 10287 10269 10248 10224 10200 10178 10157 10139 10122 10102 10085 10069 10055 10043 10031 10019 10007 9998 9989 9982
10469 10467 10464 10461 10457 10453 10447 10442 10437 10430 10422 10414 10406 10397 10387 10377 10366 10354 10338 10325 10312 10293 10276 10258 10236 10213 10189 10173 10155 10134 10117 10101 10083 10069 10054 10042 10029 10018 10008 9999 9990 9982 9975